Location: Curupao
(10.4996°N, 66.6442°W)
Time: 00:57:03
(UTC+00:00)

SL-16 R/B - Pass Details

Date: 23 May 2024
Orbit: 985 x 1007 km, 99.7° (Epoch: 15 June)

Event Time Altitude Azimuth Distance (km) Brightness Sun altitude
Exits shadow 07:01:52 35° 53° (NE) 1,554 3.8 -40.1°
Drops below altitude 10° 07:06:30 10° 9° (N) 2,774 5.3 -39.2°
Sets 07:09:09 0° 1° (N) 3,724 6.0 -38.7°
